N0MPM-4 Weather Reports


time (UTC)temp
C
wind
direction
speed
KPH
gust
KPH
rain 1hr
cm
rain 24hr
cm
rain mn
cm
humidity
%
barometer
mb
20260906120241 21 79 0.0 0.0 0.00 0.00 0.00 28 1015.5
20260906115846 21 94 0.0 3.2 0.00 0.00 0.00 28 1015.5
20260906115741 21 98 0.0 3.2 0.00 0.00 0.00 29 1015.5
20260906115241 21 96 0.0 0.0 0.00 0.00 0.00 31 1015.5
20260906111736 22 87 1.6 0.0 0.00 0.00 0.00 40 1015.5
20260906111236 22 91 1.6 0.0 0.00 0.00 0.00 40 1015.5
20260906102209 22 96 0.0 0.0 0.00 0.00 0.00 52 1015.4
20260906101709 22 105 1.6 0.0 0.00 0.00 0.00 52 1015.4
20260906024336 26 19 0.0 0.0 0.00 0.00 0.00 76 1013.3
20260906023836 27 19 0.0 0.0 0.00 0.00 0.00 76 1013.3
20260906023336 27 19 0.0 0.0 0.00 0.00 0.00 76 1013.2
20260906023157 27 70 0.0 0.0 0.00 0.00 0.00 76 1013.1
20260906022836 27 19 0.0 0.0 0.00 0.00 0.00 75 1013.2
20260906022540 27 70 0.0 0.0 0.00 0.00 0.00 76 1013.1
20260906022336 27 89 0.0 0.0 0.00 0.00 0.00 76 1013.1
20260906021836 27 89 0.0 0.0 0.00 0.00 0.00 77 1012.8
20260906021336 27 89 0.0 0.0 0.00 0.00 0.00 77 1012.8
20260906020836 27 89 0.0 0.0 0.00 0.00 0.00 78 1012.7
20260906020336 27 89 0.0 0.0 0.00 0.00 0.00 78 1012.7
20260906015837 27 89 0.0 0.0 0.00 0.00 0.00 78 1012.7
20260906015337 27 91 0.0 0.0 0.00 0.00 0.00 78 1012.6
20260906014837 27 91 0.0 0.0 0.00 0.00 0.00 78 1012.5
20260906014337 27 91 0.0 0.0 0.00 0.00 0.00 78 1012.4
20260906013837 28 92 0.0 0.0 0.00 0.00 0.00 78 1012.4
20260906013337 28 92 0.0 0.0 0.00 0.00 0.00 78 1012.4
20260906012837 28 92 0.0 0.0 0.00 0.00 0.00 77 1012.3
20260906012337 28 92 0.0 0.0 0.00 0.00 0.00 77 1012.2
20260906011837 28 91 0.0 0.0 0.00 0.00 0.00 76 1012.2
20260906011337 28 91 0.0 0.0 0.00 0.00 0.00 76 1012.2
20260906010837 28 91 0.0 0.0 0.00 0.00 0.00 75 1012.1
20260906010456 29 91 0.0 0.0 0.00 0.00 0.00 75 1012.0
20260906010337 29 91 0.0 0.0 0.00 0.00 0.00 75 1012.0
20260906010141 29 91 0.0 0.0 0.00 0.00 0.00 75 1012.0
20260906005905 29 91 0.0 0.0 0.00 0.00 0.00 74 1011.9
20260906005837 29 92 0.0 0.0 0.00 0.00 0.00 75 1012.0
20260906005623 29 91 0.0 0.0 0.00 0.00 0.00 74 1011.9
20260906005337 30 92 0.0 0.0 0.00 0.00 0.00 74 1012.0
20260906004837 30 92 0.0 0.0 0.00 0.00 0.00 73 1011.9
20260906004830 30 92 0.0 0.0 0.00 0.00 0.00 72 1011.9
20260906004748 30 92 0.0 0.0 0.00 0.00 0.00 72 1011.9
20260906004337 30 92 0.0 0.0 0.00 0.00 0.00 72 1011.9
20260905232941 34 89 0.0 0.0 0.00 0.00 0.00 62 1011.8
20260905232538 34 89 0.0 0.0 0.00 0.00 0.00 62 1011.8
20260905232038 35 32 0.0 0.0 0.00 0.00 0.00 61 1011.8
20260905231538 35 66 0.0 3.2 0.00 0.00 0.00 62 1011.9
20260905231141 35 94 0.0 1.6 0.00 0.00 0.00 61 1011.8
20260905231038 35 86 0.0 0.0 0.00 0.00 0.00 61 1011.8
20260905230538 35 65 0.0 0.0 0.00 0.00 0.00 62 1011.8
20260905230038 34 60 0.0 0.0 0.00 0.00 0.00 64 1011.8
20260905225941 34 60 0.0 0.0 0.00 0.00 0.00 64 1011.8
20260905225857 34 64 0.0 0.0 0.00 0.00 0.00 62 1011.8
20260905225538 34 64 0.0 0.0 0.00 0.00 0.00 62 1011.8
20260905225341 34 64 0.0 0.0 0.00 0.00 0.00 62 1011.8
20260905225038 34 66 0.0 0.0 0.00 0.00 0.00 61 1011.8
20260905224739 35 82 0.0 0.0 0.00 0.00 0.00 60 1011.7
20260905224538 34 67 0.0 0.0 0.00 0.00 0.00 61 1011.7
20260905224431 35 90 0.0 0.0 0.00 0.00 0.00 60 1011.8
20260905224141 35 82 0.0 0.0 0.00 0.00 0.00 60 1011.7
20260905224038 35 82 0.0 0.0 0.00 0.00 0.00 60 1011.7
20260905223538 35 90 0.0 0.0 0.00 0.00 0.00 60 1011.8
20260905223038 35 84 0.0 0.0 0.00 0.00 0.00 59 1011.6
20260905222944 35 72 0.0 0.0 0.00 0.00 0.00 60 1011.7
20260905222656 35 32 0.0 1.6 0.00 0.00 0.00 58 1011.6
20260905222538 35 72 0.0 0.0 0.00 0.00 0.00 59 1011.6
20260905222341 35 32 0.0 1.6 0.00 0.00 0.00 58 1011.6
20260905222038 35 64 0.0 0.0 0.00 0.00 0.00 60 1011.6
20260905221538 35 60 0.0 0.0 0.00 0.00 0.00 60 1011.5
20260905221038 35 39 0.0 0.0 0.00 0.00 0.00 59 1011.4
20260905220539 35 85 0.0 3.2 0.00 0.00 0.00 59 1011.5
20260905220039 35 94 1.6 0.0 0.00 0.00 0.00 61 1011.3
20260905215942 35 94 1.6 0.0 0.00 0.00 0.00 61 1011.3
20260905215937 35 101 0.0 8.0 0.00 0.00 0.00 62 1011.3
20260905215547 35 94 1.6 0.0 0.00 0.00 0.00 61 1011.3
20260905215341 35 101 0.0 8.0 0.00 0.00 0.00 62 1011.3
20260905215039 35 101 0.0 8.0 0.00 0.00 0.00 62 1011.3
20260905214817 34 54 0.0 0.0 0.00 0.00 0.00 64 1011.4
20260905214539 35 71 0.0 0.0 0.00 0.00 0.00 63 1011.3
20260905214142 34 54 0.0 0.0 0.00 0.00 0.00 64 1011.4
20260905214039 34 54 0.0 0.0 0.00 0.00 0.00 64 1011.4
20260905213539 34 9 0.0 0.0 0.00 0.00 0.00 64 1011.4
20260905213039 34 89 1.6 4.8 0.00 0.00 0.00 63 1011.3
20260905212944 34 110 1.6 4.8 0.00 0.00 0.00 63 1011.4
20260905212539 34 105 3.2 11.3 0.00 0.00 0.00 61 1011.4
20260905212341 35 106 1.6 9.7 0.00 0.00 0.00 61 1011.3
20260905212039 35 105 1.6 8.0 0.00 0.00 0.00 60 1011.4
20260905211614 35 79 1.6 1.6 0.00 0.00 0.00 61 1011.5
20260905211539 35 92 0.0 6.4 0.00 0.00 0.00 60 1011.4
20260905211141 35 79 1.6 1.6 0.00 0.00 0.00 61 1011.5
20260905211039 35 74 1.6 0.0 0.00 0.00 0.00 61 1011.5
20260905210539 35 92 3.2 0.0 0.00 0.00 0.00 60 1011.5
20260905210039 36 94 1.6 11.3 0.00 0.00 0.00 56 1011.4
20260905205539 36 86 0.0 4.8 0.00 0.00 0.00 56 1011.4
20260905205039 36 89 0.0 0.0 0.00 0.00 0.00 57 1011.4
20260905204539 37 76 0.0 1.6 0.00 0.00 0.00 55 1011.4
20260905204142 37 84 0.0 1.6 0.00 0.00 0.00 54 1011.4
20260905204039 37 75 0.0 0.0 0.00 0.00 0.00 55 1011.4
20260905204020 37 73 0.0 0.0 0.00 0.00 0.00 57 1011.6
20260905203539 37 73 0.0 0.0 0.00 0.00 0.00 57 1011.6
20260905203039 36 54 0.0 0.0 0.00 0.00 0.00 56 1011.7
20260905202942 36 36 0.0 0.0 0.00 0.00 0.00 56 1011.7
20260905202539 36 358 0.0 0.0 0.00 0.00 0.00 56 1011.8
20260905202342 36 25 0.0 0.0 0.00 0.00 0.00 57 1011.8
20260905202039 36 9 0.0 0.0 0.00 0.00 0.00 56 1011.8
20260905201539 36 85 0.0 0.0 0.00 0.00 0.00 57 1011.9
20260905201141 36 345 0.0 0.0 0.00 0.00 0.00 57 1011.8
20260905201039 36 88 0.0 0.0 0.00 0.00 0.00 59 1011.8
20260905200539 36 58 0.0 0.0 0.00 0.00 0.00 60 1012.0
20260905200039 36 101 0.0 0.0 0.00 0.00 0.00 62 1012.1
20260905195942 36 355 0.0 0.0 0.00 0.00 0.00 61 1012.1
20260905195539 36 85 0.0 0.0 0.00 0.00 0.00 58 1012.4
20260905195344 36 85 0.0 0.0 0.00 0.00 0.00 58 1012.4
20260905195039 36 85 0.0 1.6 0.00 0.00 0.00 58 1012.3
20260905194743 36 77 0.0 0.0 0.00 0.00 0.00 57 1012.4
20260905194539 36 18 0.0 0.0 0.00 0.00 0.00 57 1012.4
20260905194142 37 55 0.0 0.0 0.00 0.00 0.00 55 1012.4
20260905194039 37 58 0.0 0.0 0.00 0.00 0.00 55 1012.4
20260905193539 37 89 0.0 0.0 0.00 0.00 0.00 56 1012.4
20260905193039 37 350 0.0 0.0 0.00 0.00 0.00 56 1012.5
20260905192942 37 340 0.0 0.0 0.00 0.00 0.00 55 1012.4
20260905192723 37 63 0.0 0.0 0.00 0.00 0.00 57 1012.5
20260905192539 37 62 0.0 0.0 0.00 0.00 0.00 55 1012.6
20260905192342 37 63 0.0 0.0 0.00 0.00 0.00 57 1012.5
20260905192039 37 356 0.0 0.0 0.00 0.00 0.00 57 1012.6
20260905191539 36 333 0.0 0.0 0.00 0.00 0.00 58 1012.7
20260905191143 37 79 0.0 0.0 0.00 0.00 0.00 57 1012.6
20260905191039 37 79 0.0 0.0 0.00 0.00 0.00 57 1012.6
20260905190539 37 57 0.0 4.8 0.00 0.00 0.00 57 1012.6
20260905190039 37 52 0.0 0.0 0.00 0.00 0.00 56 1012.9
20260905185942 37 52 0.0 0.0 0.00 0.00 0.00 56 1012.9
20260905185539 37 51 0.0 0.0 0.00 0.00 0.00 56 1012.8
20260905185343 37 357 0.0 0.0 0.00 0.00 0.00 56 1012.8
20260905185039 37 57 0.0 3.2 0.00 0.00 0.00 57 1012.8
20260905184743 37 57 0.0 3.2 0.00 0.00 0.00 57 1012.8
20260905184539 37 81 0.0 0.0 0.00 0.00 0.00 57 1012.8
20260905184312 37 334 0.0 0.0 0.00 0.00 0.00 55 1013.0
20260905184143 37 334 0.0 0.0 0.00 0.00 0.00 55 1013.0
20260905184039 37 334 0.0 0.0 0.00 0.00 0.00 55 1013.0
20260905183539 37 65 0.0 0.0 0.00 0.00 0.00 57 1013.0
20260905181308 35 354 0.0 0.0 0.00 0.00 0.00 63 1013.4
20260905181211 35 354 0.0 0.0 0.00 0.00 0.00 63 1013.4
20260905180808 35 349 0.0 0.0 0.00 0.00 0.00 65 1013.4
20260905180611 34 350 0.0 0.0 0.00 0.00 0.00 65 1013.4
20260905180309 33 328 0.0 0.0 0.00 0.00 0.00 66 1013.4
20260905180011 33 357 0.0 0.0 0.00 0.00 0.00 65 1013.5
20260905175809 33 342 0.0 0.0 0.00 0.00 0.00 63 1013.5
20260905175413 33 340 0.0 3.2 0.00 0.00 0.00 63 1013.5
20260905175309 33 337 0.0 3.2 0.00 0.00 0.00 63 1013.5
20260905174809 33 342 0.0 0.0 0.00 0.00 0.00 64 1013.4
20260905174309 33 343 0.0 0.0 0.00 0.00 0.00 62 1013.4
20260905174211 33 341 0.0 0.0 0.00 0.00 0.00 61 1013.4
20260905173809 34 337 0.0 0.0 0.00 0.00 0.00 62 1013.3
20260905173611 34 352 0.0 0.0 0.00 0.00 0.00 62 1013.3
20260905173309 35 348 0.0 0.0 0.00 0.00 0.00 61 1013.3
20260905172809 35 348 0.0 0.0 0.00 0.00 0.00 59 1013.3
20260905172413 36 343 0.0 0.0 0.00 0.00 0.00 57 1013.3
20260905172309 36 343 0.0 0.0 0.00 0.00 0.00 57 1013.3
20260905171809 36 338 0.0 0.0 0.00 0.00 0.00 58 1013.2